Weather History for Silver Bay, MN

Change the Weather History Date:

Saturday, February 15, 2014

  Actual Average Record
Temperature  
Mean Temperature 0 °F -  
Max Temperature 14 °F 26 °F 41 °F (2011)
Min Temperature -13 °F 3 °F -23 °F (1997)
Degree Days  
Heating Degree Days 64    
Moisture  
Dew Point 3 °F    
Average Humidity 90    
Maximum Humidity 100    
Minimum Humidity 79    
Precipitation  
Precipitation 0.00 in - - ()
Sea Level Pressure  
Sea Level Pressure 29.90 in    
Wind  
Wind Speed 3 mph (NE)    
Max Wind Speed 10 mph    
Max Gust Speed 20 mph    
Visibility 5 miles    
Events Snow    
Averages and records for this station are not official NWS values.
T = Trace of Precipitation, MM = Missing Value Source: NWS Daily Summary

Daily Weather History Graph

Daily Weather History Graph

Search for Another Location

Airport:

Trip Planner

Search our weather history database for the weather conditions in past years. The results will help you decide how hot, cold, wet, or windy it might be!

Date:

Astronomy

Feb. 15, 2014 Rise Set
Actual Time 7:10 AM CST 5:29 PM CST
Civil Twilight 6:39 AM CST 6:01 PM CST
Nautical Twilight 6:03 AM CST 6:37 PM CST
Astronomical Twilight 5:27 AM CST 7:12 PM CST
Moon 6:37 PM CST (2/15) 7:03 AM CST (2/15)
Length of Visible Light 11h 22m
Length of Day
10h 19m
Waxing Gibbous, 99% of the Moon is Illuminated
Feb 15
Waxing Gibbous
Feb 22
Last Quarter
Mar 1
New
Mar 8
First Quarter
Mar 16
Full

Hourly Weather History & Observations

Time (CST) Temp. Windchill Dew Point Humidity Pressure Visibility Wind Dir Wind Speed Gust Speed Precip Events Conditions
12:13 AM -13.0 °F - -16.6 °F 84% 29.93 in 10.0 mi Calm Calm - N/A   Clear
12:33 AM -13.0 °F - -14.8 °F 92% 29.93 in 10.0 mi Calm Calm - N/A   Clear
12:53 AM -9.4 °F - -13.0 °F 84% 29.92 in 10.0 mi Calm Calm - N/A   Clear
1:13 AM -9.4 °F - -11.2 °F 92% 29.93 in 10.0 mi Calm Calm - N/A   Clear
1:33 AM -7.6 °F - -9.4 °F 92% 29.92 in 10.0 mi Calm Calm - N/A   Clear
1:53 AM -7.6 °F - -9.4 °F 92% 29.91 in 10.0 mi Calm Calm - N/A   Clear
2:13 AM -7.6 °F - -9.4 °F 92% 29.92 in 10.0 mi Calm Calm - N/A   Clear
2:33 AM -7.6 °F - -9.4 °F 92% 29.92 in 10.0 mi Calm Calm - N/A   Clear
2:53 AM -4.0 °F - -5.8 °F 92% 29.90 in 10.0 mi Calm Calm - N/A   Clear
3:13 AM -2.2 °F - -5.8 °F 85% 29.90 in 7.0 mi Calm Calm - N/A   Scattered Clouds
3:33 AM -2.2 °F - -5.8 °F 85% 29.89 in 7.0 mi Calm Calm - N/A Snow Light Snow
3:53 AM -2.2 °F - -4.0 °F 92% 29.89 in 1.8 mi Calm Calm - N/A Snow Light Snow
4:13 AM -0.4 °F - -2.2 °F 92% 29.89 in 1.2 mi Calm Calm - N/A Snow Light Snow
4:33 AM -0.4 °F - -2.2 °F 92% 29.89 in 1.5 mi Calm Calm - N/A Snow Light Snow
4:53 AM -0.4 °F - -2.2 °F 92% 29.89 in 1.8 mi Calm Calm - N/A Snow Light Snow
5:13 AM -0.4 °F - -2.2 °F 92% 29.89 in 1.8 mi Calm Calm - N/A Snow Light Snow
5:33 AM 1.4 °F - -0.4 °F 92% 29.89 in 1.8 mi Calm Calm - N/A Snow Light Snow
5:53 AM 1.4 °F - 1.4 °F 100% 29.88 in 1.2 mi Calm Calm - N/A Snow Light Snow
6:13 AM 3.2 °F - 1.4 °F 92% 29.87 in 1.5 mi Calm Calm - N/A Snow Light Snow
6:33 AM 3.2 °F - 1.4 °F 92% 29.86 in 4.0 mi Calm Calm - N/A Snow Light Snow
6:53 AM 6.8 °F - 5.0 °F 92% 29.86 in 10.0 mi Calm Calm - N/A   Scattered Clouds
7:13 AM 8.6 °F - 6.8 °F 92% 29.86 in 10.0 mi Calm Calm - N/A   Scattered Clouds
7:33 AM 8.6 °F - 6.8 °F 92% 29.87 in 4.0 mi Calm Calm - N/A Snow Light Snow
7:53 AM 8.6 °F - 6.8 °F 92% 29.87 in 7.0 mi Calm Calm - N/A Snow Light Snow
8:13 AM 8.6 °F - 6.8 °F 92% 29.87 in 7.0 mi Calm Calm - N/A Snow Light Snow
8:33 AM 8.6 °F 2.0 °F 6.8 °F 92% 29.87 in 7.0 mi South 3.5 mph - N/A Snow Light Snow
8:53 AM 8.6 °F - 6.8 °F 92% 29.87 in 10.0 mi Calm Calm - N/A Snow Light Snow
9:13 AM 10.4 °F - 6.8 °F 85% 29.87 in 5.0 mi Calm Calm - N/A Snow Light Snow
9:33 AM 10.4 °F - 6.8 °F 85% 29.87 in 10.0 mi Calm Calm - N/A Snow Light Snow
9:53 AM 10.4 °F 0.8 °F 6.8 °F 85% 29.87 in 10.0 mi SE 5.8 mph - N/A   Clear
10:13 AM 10.4 °F -0.4 °F 6.8 °F 85% 29.87 in 10.0 mi East 6.9 mph - N/A   Clear
10:33 AM 12.2 °F 4.3 °F 6.8 °F 79% 29.86 in 10.0 mi SSE 4.6 mph - N/A   Clear
10:53 AM 12.2 °F 2.9 °F 8.6 °F 85% 29.86 in 10.0 mi ENE 5.8 mph - N/A   Scattered Clouds
11:13 AM 12.2 °F 2.9 °F 8.6 °F 85% 29.85 in 10.0 mi ENE 5.8 mph - N/A   Scattered Clouds
11:33 AM 12.2 °F 0.7 °F 8.6 °F 85% 29.85 in 10.0 mi East 8.1 mph - N/A   Clear
11:53 AM 14.0 °F 3.9 °F 8.6 °F 79% 29.84 in 10.0 mi ESE 6.9 mph - N/A   Clear
12:13 PM 12.2 °F 0.7 °F 8.6 °F 85% 29.84 in 7.0 mi ENE 8.1 mph - N/A Snow Light Snow
12:33 PM 12.2 °F -0.2 °F 8.6 °F 85% 29.84 in 10.0 mi ENE 9.2 mph - N/A   Clear
12:53 PM 12.2 °F -0.2 °F 8.6 °F 85% 29.82 in 2.5 mi East 9.2 mph - N/A Snow Light Snow
1:13 PM 12.2 °F -1.0 °F 8.6 °F 85% 29.83 in 3.0 mi ENE 10.4 mph - N/A Snow Light Snow
1:33 PM 12.2 °F -1.0 °F 8.6 °F 85% 29.82 in 2.0 mi ENE 10.4 mph - N/A Snow Light Snow
1:53 PM 12.2 °F 0.7 °F 10.4 °F 92% 29.81 in 1.2 mi ENE 8.1 mph - N/A Snow Light Snow
2:13 PM 12.2 °F 0.7 °F 10.4 °F 92% 29.82 in 1.0 mi ENE 8.1 mph - N/A Snow Light Snow
2:33 PM 12.2 °F -1.0 °F 10.4 °F 92% 29.82 in 0.5 mi ENE 10.4 mph - N/A Snow Snow
2:53 PM 10.4 °F -3.3 °F 8.6 °F 92% 29.83 in 0.5 mi ENE 10.4 mph - N/A Snow Snow
3:13 PM 10.4 °F -3.3 °F 8.6 °F 92% 29.84 in 0.8 mi ENE 10.4 mph - N/A Snow Light Snow
3:33 PM 10.4 °F -2.4 °F 8.6 °F 92% 29.84 in 0.5 mi ENE 9.2 mph 19.6 mph N/A Snow Snow
3:53 PM 10.4 °F -2.4 °F 8.6 °F 92% 29.85 in 0.5 mi NE 9.2 mph 16.1 mph N/A Snow Snow
4:13 PM 10.4 °F -3.3 °F 8.6 °F 92% 29.86 in 0.5 mi NE 10.4 mph - N/A Snow Light Snow
4:33 PM 8.6 °F -4.7 °F 6.8 °F 92% 29.87 in 0.8 mi NE 9.2 mph - N/A Snow Light Snow
4:53 PM 8.6 °F -3.7 °F 6.8 °F 92% 29.88 in 0.8 mi NE 8.1 mph - N/A Snow Light Snow
5:13 PM 8.6 °F -4.7 °F 6.8 °F 92% 29.90 in 1.2 mi NE 9.2 mph - N/A Snow Light Snow
5:33 PM 8.6 °F -4.7 °F 6.8 °F 92% 29.91 in 1.8 mi NNE 9.2 mph - N/A Snow Light Snow
5:53 PM 8.6 °F -3.7 °F 5.0 °F 85% 29.92 in 2.5 mi NE 8.1 mph - N/A Snow Light Snow
6:13 PM 8.6 °F -1.3 °F 6.8 °F 92% 29.93 in 1.5 mi NE 5.8 mph - N/A Snow Light Snow
6:34 PM 8.6 °F -2.6 °F 6.8 °F 92% 29.94 in 1.0 mi NE 6.9 mph - N/A Snow Light Snow
6:53 PM 8.6 °F -2.6 °F 6.8 °F 92% 29.95 in 1.0 mi NNE 6.9 mph - N/A Snow Light Snow
7:13 PM 6.8 °F -4.8 °F 5.0 °F 92% 29.96 in 2.0 mi NNE 6.9 mph - N/A Snow Light Snow
7:33 PM 6.8 °F -5.9 °F 5.0 °F 92% 29.97 in 1.8 mi NNE 8.1 mph - N/A Snow Light Snow
7:53 PM 6.8 °F -5.9 °F 5.0 °F 92% 29.97 in 3.0 mi NE 8.1 mph - N/A Snow Light Snow
8:13 PM 6.8 °F -3.5 °F 3.2 °F 85% 29.98 in 5.0 mi NNE 5.8 mph - N/A Snow Light Snow
8:33 PM 6.8 °F -3.5 °F 5.0 °F 92% 29.98 in 2.5 mi NE 5.8 mph - N/A Snow Light Snow
8:53 PM 6.8 °F -0.1 °F 5.0 °F 92% 29.99 in 1.0 mi North 3.5 mph - N/A Snow Light Snow
9:13 PM 6.8 °F -0.1 °F 5.0 °F 92% 29.98 in 1.2 mi NNE 3.5 mph - N/A Snow Light Snow
9:33 PM 6.8 °F -0.1 °F 5.0 °F 92% 29.99 in 2.0 mi North 3.5 mph - N/A Snow Light Snow
9:53 PM 6.8 °F -2.0 °F 3.2 °F 85% 29.99 in 3.0 mi North 4.6 mph - N/A Snow Light Snow
10:13 PM 6.8 °F -0.1 °F 3.2 °F 85% 30.00 in 7.0 mi North 3.5 mph - N/A Snow Light Snow
10:33 PM 5.0 °F - 3.2 °F 92% 30.00 in 4.0 mi Calm Calm - N/A Snow Light Snow
10:53 PM 5.0 °F - 1.4 °F 85% 30.01 in 7.0 mi Calm Calm - N/A Snow Light Snow
11:13 PM 3.2 °F - 1.4 °F 92% 30.02 in 7.0 mi Calm Calm - N/A Snow Light Snow
11:33 PM 1.4 °F - -0.4 °F 92% 30.02 in 10.0 mi Calm Calm - N/A   Clear
11:53 PM -0.4 °F -8.3 °F -0.4 °F 100% 30.03 in 10.0 mi NNW 3.5 mph - N/A   Clear